Location: Unspecified
(49.9820°N, 20.4363°E)
Time: 01:23:43
(UTC+01:00)

ISS - Visible Passes

Search period start: 26 January 2021 00:00
Search period end: 05 February 2021 00:00
Orbit: 418 x 421 km, 51.6° (Epoch: 26 January)

Date Brightness Start Highest point End Pass type
(mag) Time Alt. Az. Time Alt. Az. Time Alt. Az.
26 Jan -3.7 17:12:16 10° WSW 17:15:39 85° SSE 17:18:38 13° ENE visible
26 Jan -2.5 18:49:14 10° W 18:51:36 40° WNW 18:51:36 40° WNW visible
27 Jan -3.6 18:01:50 10° W 18:05:12 64° N 18:06:12 40° ENE visible
27 Jan -0.4 19:38:46 10° WNW 19:39:10 13° WNW 19:39:10 13° WNW visible
28 Jan -3.6 17:14:25 10° W 17:17:48 69° N 17:20:48 13° ENE visible
28 Jan -2.6 18:51:24 10° WNW 18:53:46 42° WNW 18:53:46 42° WNW visible
29 Jan -3.7 18:04:00 10° WNW 18:07:23 68° N 18:08:23 41° ENE visible
29 Jan -0.4 19:40:53 10° WNW 19:41:21 13° W 19:41:21 13° W visible
30 Jan -3.6 17:16:35 10° W 17:19:57 63° N 17:23:01 12° E visible
30 Jan -2.7 18:53:28 10° WNW 18:56:00 45° W 18:56:00 45° W visible
31 Jan -3.8 18:06:04 10° WNW 18:09:28 88° S 18:10:42 37° ESE visible
31 Jan -0.4 19:43:11 10° W 19:43:41 13° W 19:43:41 13° W visible
01 Feb -3.8 17:18:39 10° WNW 17:22:03 77° NNE 17:25:26 10° E visible
01 Feb -2.3 18:55:36 10° W 18:58:27 34° SW 18:58:27 34° SW visible
02 Feb -3.0 18:08:06 10° WNW 18:11:23 49° SSW 18:13:19 21° SE visible
03 Feb -3.4 17:20:39 10° WNW 17:24:01 68° SSW 17:27:23 10° ESE visible
03 Feb -1.2 18:58:07 10° W 19:00:23 17° SW 19:01:19 15° SSW visible
04 Feb -1.6 18:10:19 10° W 18:13:07 24° SW 18:15:56 10° SSE visible
